Regional Weather Roundup
Issued by NWS Boston, MA

Home | Current Version | Previous Version | Text Only | Print | Product List | Glossary On
Versions: 1 2 3 4 5 6 7 8 9 10 11 12 13 14 15 16 17 18 19 20 21 22 23 24 25 26 27 28 29 30 31 32 33 34 35 36 37 38 39 40 41 42 43 44 45 46 47 48 49 50
926
ASUS41 KBOX 301310
RWRBOX

REGIONAL WEATHER ROUNDUP
NATIONAL WEATHER SERVICE TAUNTON MA
900 AM EDT SAT JUL 30 2016

NOTE:  "FAIR" INDICATES FEW OR NO CLOUDS BELOW 12,000 FEET WITH NO
SIGNIFICANT WEATHER AND/OR OBSTRUCTIONS TO VISIBILITY.

MAZALL-301400-
EASTERN MASSACHUSETTS

CITY           SKY/WX    TMP DP  RH WIND       PRES   REMARKS
BOSTON         MOSUNNY   78  59  51 NE9       30.01S
BEVERLY        PTSUNNY   77  62  59 N6        30.01S
LAWRENCE       SUNNY     78  56  46 NW8       30.04S
BEDFORD        SUNNY     78  57  48 N8        30.01S
BLUE HILL        N/A     76  58  53 NE7       30.03R
NORWOOD        SUNNY     79  61  53 VRB6      30.01S
MARSHFIELD     SUNNY     75  64  69 VRB5      30.01R
PLYMOUTH       SUNNY     75  61  61 NE14      30.01S
TAUNTON        SUNNY     77  64  64 N7        30.00S
NEW BEDFORD    SUNNY     78  67  68 N5        30.00S
$$

MAZALL-301400-
CAPE COD AND THE ISLANDS

CITY           SKY/WX    TMP DP  RH WIND       PRES   REMARKS
FALMOUTH       NOT AVBL
HYANNIS          N/A    N/A N/A N/A MISG      29.99R
CHATHAM        SUNNY     75  68  78 VRB6      30.00S
PROVINCETOWN   SUNNY     72  67  84 N12       30.01S
NANTUCKET      MOSUNNY   74  68  81 N7        30.00R
MARTHAS VNYRD  SUNNY     78  69  73 N6        30.00R
$$

MAZALL-301400-
CENTRAL AND WESTERN MASSACHUSETTS

CITY           SKY/WX    TMP DP  RH WIND       PRES   REMARKS
WORCESTER      SUNNY     71  55  56 VRB6      30.06R
FITCHBURG      SUNNY     75  59  57 VRB5      30.05R
ORANGE         MOSUNNY   71  60  68 N6        30.05R
SPRINGFIELD    PTSUNNY   73  60  62 VRB5      30.03R
WESTFIELD      SUNNY     73  60  63 NE8       30.04R
NORTH ADAMS    PTSUNNY   67  60  78 CALM      30.06S
PITTSFIELD     MOSUNNY   69  58  67 CALM      30.06R
$$

RIZALL-301400-
RHODE ISLAND

CITY           SKY/WX    TMP DP  RH WIND       PRES   REMARKS
PROVIDENCE     MOSUNNY   77  61  57 N10       30.02R
NEWPORT        SUNNY     76  67  73 VRB5      30.01R
BLOCK ISLAND   SUNNY     74  69  85 N8        30.02R
SMITHFIELD     SUNNY     75  61  60 NE9       30.03R
WESTERLY       SUNNY     77  65  66 VRB6      30.01S
$$

CTZALL-301400-
CONNECTICUT

CITY           SKY/WX    TMP DP  RH WIND       PRES   REMARKS
BRADLEY INTL   PTSUNNY   75  59  57 N8        30.04R
HARTFORD       SUNNY     77  62  59 N7        30.03R
BRIDGEPORT     SUNNY     77  64  64 N10       30.01R
DANBURY        CLOUDY    73  62  68 NE7       30.05R
GROTON         SUNNY     79  67  66 N7        30.00R
NEW HAVEN      MOSUNNY   75  66  73 N8        30.01R
CHESTER        FAIR      75  66  73 VRB5      30.03R
MERIDEN        SUNNY     78  61  55 N7        30.03R
WILLIMANTIC    SUNNY     77  64  64 N6        30.03R
OXFORD         MOSUNNY   73  61  64 NE8       30.06R
$$

MEZ002-015-021-024-NHZ003-005-008-011-012-014-VTZ005-008-301400-
NORTHERN NEW ENGLAND

CITY           SKY/WX    TMP DP  RH WIND       PRES   REMARKS
PORTLAND ME    MOSUNNY   75  55  49 N10       30.02R
BANGOR ME      PTSUNNY   76  56  49 NE12      30.01R
CONCORD NH     MOSUNNY   72  57  59 NW7       30.04R
MANCHESTER NH  PTSUNNY   75  55  49 N6        30.02R
NASHUA NH      MOSUNNY   75  59  57 N6        30.04R
PORTSMOUTH NH  PTSUNNY   74  61  62 VRB5      30.01S
JAFFREY NH     MOSUNNY   71  57  61 VRB5      30.07R
KEENE NH       PTSUNNY   67  60  78 NW5       30.06S
BURLINGTON VT  FAIR      68  55  63 NE3       30.08R
MT. WASHINGTON MOSUNNY   45  39  81 N20         N/A
$$

NYZ052-076-301400-
EASTERN NEW YORK

CITY           SKY/WX    TMP DP  RH WIND       PRES   REMARKS
ALBANY         CLOUDY    69  61  75 N6        30.06R
NEW YORK CITY  CLOUDY    77  70  79 NE9       30.01R
$$

ANZALL-301400-
MARINE OBSERVATIONS

STATION/POSITION TIME  TEMP    WIND        PRES    VSBY  WAVE
                       AIR SEA DIR/SP/G                  HT/PER
                 (UTC) (F)     (DEG/KT/KT) (MB)    (MI)  (FT/S)
BOSTON BUOY      1250   71 71  360/ 10/ 12 1016.0R         1/14
BUZZARDS BAY     1200   71     360/  4/  4 1016.2R
NANTUCKET SOUND  1250   73 75  360/  8/ 10 1015.4R         1/ 2
MASS BAY-STELLWA 1204   71 69  360/ 10/ 12 1015.7R  1 7/8  1/ 8
ISLE OF SHOALS   1200   69     330/  9/ 10 1016.1R
S OF BLOCK IS    1225      71                N/A           2/ 7
$$

......................KEY.........................
  SKY/WX - SKY CONDITION/PRESENT WEATHER
  TMP    - TEMPERATURE IN FAHRENHEIT
  DWPT   - DEWPOINT IN FAHRENHEIT
  RH     - RELATIVE HUMIDITY IN PERCENT
  WIND   - DIRECTION AND SPEED IN MPH
  PRES   - MEAN SEA LEVEL PRESSURE IN INCHES OF HG
  WCI    - WIND CHILL INDEX
  VSB    - VISIBILITY IN MILES
  HX     - HEAT INDEX
  TC     - TEMPERATURE IN CELSIUS
  VRB    - VARIABLE WIND DIRECTION
  N/A    - NOT AVAILABLE




USA.gov is the U.S. government's official web portal to all federal, state and local government web resources and services.